Theta_e
343 339 350 350 349 347 344 347 347 345 347 349 347 342 341 342 346 346 347 347 349 349 349 340 348 348 345 344 342 344 345 342 338 338 335 333 340 338 332 333 332 342 345 345
341 341 343 346 345 345 346 349 350 346 346 347 343 342 341 341 343 343 344 345 345 346 348 342 348 349 347 346 346 342 344 345 343 343 344 339 333 332 332 333 336 339 345 346
341 341 347 347 346 346 347 348 349 352 349 344 343 343 342 342 342 343 343 345 344 344 344 348 349 350 349 349 349 349 345 346 346 343 345 345 343 336 340 343 341 347 347 347
337 339 345 348 349 346 348 346 349 350 353 350 342 347 343 341 344 343 344 345 343 345 345 346 350 352 351 351 352 352 350 349 347 348 346 344 341 344 342 344 345 352 353 353
334 338 343 346 349 344 349 347 350 347 350 350 349 349 344 342 344 344 344 345 344 343 346 348 347 352 352 352 353 353 353 353 346 346 346 344 341 344 344 346 348 353 353 356
332 337 341 342 344 345 345 348 347 350 352 348 348 350 350 342 341 342 343 343 343 346 346 347 350 351 352 353 353 354 352 353 347 349 348 352 348 349 353 353 354 350 353 352
332 334 339 341 344 343 340 343 352 356 357 354 345 350 348 341 341 339 343 343 344 345 347 346 350 351 352 352 348 353 350 348 348 349 353 353 354 351 354 353 352 352 353 352
332 334 339 340 344 346 347 348 350 354 355 353 348 350 347 339 340 341 342 342 343 346 346 344 349 352 352 353 352 346 344 346 348 349 350 351 351 352 350 354 352 353 353 350
330 333 338 339 344 345 349 344 344 348 348 351 354 347 341 340 342 342 343 343 344 347 346 348 349 351 352 353 354 353 346 345 346 344 344 346 346 347 350 353 353 353 352 354
329 331 334 340 343 344 343 343 346 346 358 356 350 346 348 343 342 339 342 343 344 347 348 348 349 351 351 351 353 353 352 348 346 348 348 348 348 349 352 355 355 352 351 352
328 328 331 340 341 344 342 341 345 346 349 350 357 349 340 341 341 339 341 342 344 347 349 349 350 349 350 351 352 352 353 354 352 353 355 356 356 354 337 345 353 353 354 354
328 327 329 342 340 341 342 344 345 346 351 348 355 352 343 340 340 341 341 342 342 342 345 345 346 346 347 350 351 352 355 356 357 356 360 358 355 355 352 351 355 356 353 351
326 328 328 340 339 339 340 341 344 346 347 353 356 351 340 338 339 341 340 340 340 340 342 345 346 347 349 351 352 354 356 357 358 360 359 356 356 356 355 356 355 352 346 331
327 324 327 334 340 341 341 344 345 345 352 352 351 346 339 339 339 337 341 341 341 342 345 346 348 349 352 353 355 356 357 360 360 358 358 357 356 358 354 352 346 331 330 331
326 323 325 328 336 340 342 344 345 346 346 348 345 344 341 338 338 340 341 341 343 344 346 347 347 350 353 354 355 359 361 361 360 358 358 359 360 356 350 331 330 331 331 328
325 324 330 330 331 338 344 341 343 344 344 346 344 345 340 340 341 341 342 345 344 346 348 348 351 352 354 355 357 360 361 361 362 363 362 361 353 340 329 329 329 328 325 326
324 324 326 328 334 340 340 339 339 343 344 344 344 341 339 339 340 341 343 344 344 351 350 352 353 354 357 357 358 361 362 362 362 360 356 348 330 328 328 327 326 325 324 323
324 327 327 328 332 344 339 337 337 344 344 343 341 340 340 341 341 342 343 343 344 352 353 354 355 359 360 360 361 361 361 358 353 345 332 328 328 326 326 326 325 324 323 322
324 325 326 328 329 334 340 337 338 340 345 342 341 340 340 342 341 341 342 342 347 350 352 352 358 362 364 362 361 360 357 352 338 328 328 327 326 325 326 326 326 327 327 325
324 326 329 329 328 331 333 338 338 339 344 342 342 341 338 341 340 339 342 342 347 350 352 357 362 364 362 362 359 354 343 334 328 327 327 326 326 326 327 328 329 331 328 316
327 330 331 332 329 329 332 336 339 342 342 341 341 341 340 338 339 341 341 344 345 350 358 360 361 362 361 360 358 337 331 328 328 328 327 327 328 328 328 329 328 328 318 312
329 331 332 333 334 334 331 336 338 338 338 340 339 340 340 340 341 341 343 351 351 359 362 363 363 364 362 360 353 331 327 328 327 327 327 327 327 327 326 326 325 317 316 320
332 330 331 332 333 335 335 336 337 337 337 340 341 340 340 341 342 342 346 355 355 358 362 363 362 362 360 357 333 327 328 326 326 326 326 326 327 326 325 322 319 323 325 324
329 330 330 329 329 329 331 331 332 336 339 339 341 340 339 339 340 344 352 359 360 362 362 363 362 359 353 336 329 326 326 326 325 325 326 326 327 325 322 323 324 325 326 326
330 330 330 328 328 331 330 331 331 333 338 340 340 340 340 340 340 351 358 361 362 362 361 362 361 356 345 331 328 328 326 326 325 325 325 327 327 324 326 326 326 325 323 322
333 332 331 330 329 330 330 330 333 332 333 339 339 340 341 347 352 358 360 361 362 362 361 361 360 352 335 329 327 328 326 325 325 325 326 327 326 326 327 327 326 324 322 321
Wind_Speed
19 6 16 27 28 21 13 12 14 15 12 19 10 9 9 17 21 21 28 27 27 26 29 12 29 25 26 26 23 19 19 17 14 15 12 11 18 23 23 17 7 5 5 5
8 11 12 26 18 19 15 13 19 15 9 6 13 11 10 13 20 27 25 29 30 27 38 11 32 30 31 30 24 23 17 15 15 14 13 12 16 20 16 7 7 7 9 10
11 9 19 16 12 17 14 8 8 21 20 14 10 9 9 9 19 22 24 31 25 31 27 27 32 35 35 28 21 18 19 19 17 15 14 13 16 16 15 14 12 6 6 8
10 15 17 13 17 15 9 20 17 18 16 4 5 5 7 10 14 17 24 35 28 33 22 33 36 34 31 24 19 17 15 18 20 18 16 12 10 13 11 9 8 8 10 8
17 15 9 17 23 23 13 22 24 12 15 12 8 5 6 7 12 11 18 32 27 29 28 36 30 33 28 23 21 20 18 16 16 19 16 13 10 6 7 10 11 9 9 10
17 18 10 12 17 29 11 16 22 11 4 4 1 4 4 7 7 18 26 26 25 35 30 32 31 31 25 20 23 21 19 18 17 20 19 17 11 10 9 10 9 6 5 9
16 17 10 14 9 4 5 9 3 5 2 6 3 3 11 6 8 11 26 33 33 29 36 30 27 32 26 21 20 23 21 19 19 19 18 16 14 12 12 10 6 5 7 13
10 10 12 7 5 10 8 5 5 7 6 4 7 5 7 11 23 23 38 37 38 34 38 27 34 33 28 24 20 20 20 19 18 16 18 15 13 13 12 8 8 9 9 9
7 12 6 7 9 9 5 5 8 6 4 2 3 6 9 18 16 19 35 37 40 39 38 36 36 37 28 28 24 17 18 19 18 16 15 14 12 10 8 8 9 8 7 3
20 10 9 7 12 7 16 11 3 3 4 4 6 8 14 12 17 16 29 26 39 42 37 36 41 37 29 26 24 18 14 13 16 15 13 10 9 7 5 9 10 7 11 10
18 8 18 5 5 12 5 4 4 6 9 6 5 7 8 13 19 16 21 31 41 40 39 38 37 31 26 26 25 21 18 13 12 13 9 5 6 8 6 7 14 10 9 8
18 4 6 3 7 3 6 6 11 6 6 6 6 7 16 11 15 27 25 34 43 43 43 36 34 31 28 27 25 20 18 10 9 9 18 13 9 10 12 16 12 9 9 8
8 10 11 6 8 3 6 5 11 9 5 3 2 5 12 14 12 29 25 37 41 40 38 38 34 32 32 29 25 18 14 17 17 20 19 15 13 11 11 9 8 7 3 2
6 7 9 10 8 5 11 12 21 17 8 4 9 10 11 14 15 21 30 39 43 40 36 38 33 32 33 28 23 20 23 27 24 24 20 18 12 9 6 7 4 1 2 5
2 4 6 8 10 10 9 8 13 5 15 9 17 6 11 11 14 24 37 38 37 42 39 37 31 31 31 29 27 28 30 23 20 21 19 15 9 5 5 7 8 8 10 12
3 6 3 5 7 10 7 4 3 14 9 6 8 4 12 23 24 31 34 35 36 38 40 35 33 32 32 32 30 28 25 21 19 17 14 9 7 6 7 10 11 12 13 13
7 4 2 5 1 7 4 5 8 5 9 11 5 8 5 9 27 30 32 38 40 38 39 38 37 34 33 31 30 28 24 18 14 13 11 11 10 10 13 14 14 13 12 12
11 3 4 4 2 7 3 11 17 14 9 6 7 16 13 18 34 36 44 44 36 38 40 38 35 33 31 30 28 25 21 16 14 15 15 14 14 16 17 15 14 13 12 11
10 4 3 5 9 2 5 8 9 10 12 17 17 28 14 32 34 31 43 41 38 38 39 35 33 32 31 30 28 24 20 18 18 18 17 17 18 18 16 15 13 11 8 8
10 5 4 2 7 11 5 5 7 4 8 21 21 25 10 33 15 11 44 42 37 41 38 35 33 31 31 29 26 23 24 22 21 19 19 19 19 17 16 14 13 9 7 6
5 4 4 5 7 7 6 11 13 7 5 28 38 34 18 12 24 42 48 45 42 42 40 36 35 35 34 30 26 26 25 24 22 21 22 21 18 16 15 14 10 7 6 8
9 4 3 3 6 6 19 6 15 8 6 16 27 29 34 31 37 51 51 49 49 46 42 39 38 37 34 31 28 29 28 26 24 23 23 21 19 17 15 12 10 9 11 12
6 13 5 5 5 8 7 14 24 23 24 38 37 48 39 44 33 53 52 55 52 50 47 45 41 36 34 32 31 31 30 29 28 25 23 22 19 17 14 12 14 14 12 9
14 12 10 5 13 14 28 23 15 17 17 55 48 35 42 36 31 44 54 53 53 52 51 48 41 38 38 35 33 30 32 31 29 28 27 24 21 19 17 17 16 13 10 8
10 7 13 7 12 17 31 24 16 7 4 51 33 36 45 18 22 51 52 51 54 55 51 48 41 40 40 38 36 33 33 32 31 30 27 25 23 24 22 20 15 12 12 12
13 5 7 13 19 17 23 27 16 14 12 32 18 15 19 13 38 53 55 54 55 54 50 46 42 41 41 40 38 36 35 34 33 32 29 28 28 26 22 19 20 20 15 14
Wind_Direction
233 197 157 166 172 192 183 208 232 264 260 119 247 150 196 176 159 156 170 170 163 158 188 162 165 169 171 164 167 168 164 149 152 153 145 124 159 162 153 163 156 169 195 218
257 241 187 180 167 163 185 189 241 271 267 139 182 168 196 174 167 173 150 160 169 159 173 198 173 180 174 174 178 182 176 172 178 167 157 151 150 143 146 168 218 240 240 240
221 233 145 177 163 152 177 187 284 285 311 207 163 175 175 183 170 183 167 167 167 180 182 164 179 187 181 176 177 184 188 186 193 184 185 180 178 187 198 217 226 229 223 232
250 252 173 196 187 149 141 178 186 266 304 149 135 202 204 193 184 167 169 162 165 169 176 174 183 183 180 184 179 183 191 189 196 201 199 197 201 204 210 215 219 219 254 265
249 253 228 213 168 166 217 190 172 149 313 311 356 101 235 171 183 189 145 172 180 181 183 179 175 179 184 184 186 193 197 196 198 195 205 193 184 188 223 231 230 247 266 271
260 299 239 233 160 175 155 134 97 96 360 306 165 82 291 180 185 150 151 166 177 177 184 178 175 173 179 183 192 198 201 201 199 191 190 203 202 218 210 203 226 233 260 271
271 261 238 259 132 83 132 127 100 77 284 236 5 52 242 216 199 169 156 162 181 182 173 171 168 171 176 180 191 198 195 192 189 191 202 209 210 222 227 221 211 250 240 265
236 276 202 262 92 113 53 103 148 151 188 286 2 234 248 239 204 196 158 172 178 181 177 178 172 177 180 182 181 183 192 191 188 194 206 215 218 221 231 238 238 243 272 278
240 256 203 200 149 125 80 11 141 99 45 249 237 294 280 254 215 174 162 166 177 171 172 170 176 182 182 188 190 187 188 189 193 195 200 208 220 231 232 259 264 258 272 273
252 284 277 234 112 85 142 149 92 114 117 348 270 281 235 178 175 168 164 170 165 170 170 171 177 180 178 189 195 197 200 198 198 196 199 208 221 220 266 279 263 259 276 283
240 242 278 57 323 135 96 181 89 92 126 170 284 251 241 196 165 168 160 169 157 166 168 164 170 175 176 180 194 197 201 197 196 196 187 191 205 187 339 244 262 252 265 285
223 217 243 182 197 94 241 196 147 124 165 146 180 266 204 159 166 158 173 147 150 159 162 165 169 172 175 177 184 192 186 189 187 187 213 208 206 201 209 219 241 266 284 297
217 223 248 340 344 303 219 157 130 101 94 119 176 264 157 162 163 164 149 149 155 161 165 169 168 171 175 174 175 181 190 194 204 207 200 195 205 213 223 240 252 258 288 325
182 221 187 228 208 232 263 121 143 151 135 182 241 325 184 179 158 160 145 149 156 158 155 161 165 166 169 166 163 176 189 183 177 185 192 207 212 213 241 203 188 137 82 63
121 229 241 265 216 181 273 16 119 219 150 169 221 215 275 187 167 148 149 151 151 147 149 143 147 149 154 160 166 168 169 173 187 197 205 210 217 237 185 134 119 108 97 92
259 255 288 294 305 217 143 97 168 254 185 118 152 234 230 240 158 150 149 146 147 148 146 151 155 157 158 162 167 170 175 179 185 190 194 211 211 180 134 117 117 109 105 103
278 189 193 256 124 101 316 205 235 187 175 158 132 226 287 191 150 153 148 148 153 148 155 159 162 167 166 172 179 181 185 190 192 206 200 178 161 142 126 123 118 110 106 104
281 236 151 203 241 197 203 158 241 149 155 326 318 257 210 177 155 154 154 155 154 157 164 165 171 171 175 179 184 192 195 192 184 173 164 159 148 139 133 129 126 119 119 117
276 295 189 159 246 253 186 173 167 161 195 190 226 242 232 155 148 156 159 162 161 170 173 176 181 178 182 187 190 192 187 180 172 161 158 151 146 143 138 135 132 129 133 111
278 279 139 197 208 232 210 202 223 166 147 208 223 223 172 157 157 171 164 165 168 175 177 179 177 179 186 189 187 184 174 170 165 160 156 152 151 149 144 139 138 142 109 90
267 308 234 272 215 244 249 195 114 110 225 175 203 191 168 166 170 166 169 168 176 179 178 179 181 187 189 187 184 176 170 168 166 160 156 156 154 152 149 151 154 141 124 118
215 195 232 212 218 239 211 171 171 191 96 171 223 204 182 175 172 165 165 170 176 172 171 178 183 185 186 188 185 176 171 169 167 164 160 158 160 161 162 161 154 138 130 119
240 221 199 205 209 277 261 168 203 190 207 198 201 211 195 179 173 166 164 171 176 176 177 183 189 183 186 189 185 179 173 171 168 166 164 163 165 164 161 157 151 136 124 114
252 254 245 265 270 267 284 291 303 6 199 183 204 215 200 187 186 170 164 164 166 172 178 186 186 186 182 184 183 185 176 173 169 168 168 169 164 160 154 145 138 135 139 150
235 232 229 234 258 276 274 284 288 302 152 180 182 194 207 223 190 163 162 163 168 174 184 187 189 190 186 180 183 184 180 176 172 172 171 167 165 162 159 161 165 163 166 177
267 289 249 231 234 230 253 259 273 330 292 111 108 212 197 167 169 165 163 166 171 177 187 186 191 191 188 184 183 183 183 180 179 176 173 173 173 177 176 176 173 180 199 198